Regional Weather Roundup
Issued by NWS Huntsville, AL

Home | Current Version | Previous Version | Text Only | Print | Product List | Glossary On
Versions: 1 2 3 4 5 6 7 8 9 10 11 12 13 14 15 16 17 18 19 20 21 22 23 24 25 26 27 28 29 30 31 32 33 34 35 36 37 38 39 40 41 42 43 44 45 46 47 48 49 50
000
ASUS44 KHUN 231224
RWRHUN

WEATHER ROUNDUP FOR THE TENNESSEE VALLEY
NATIONAL WEATHER SERVICE HUNTSVILLE AL
700 AM CDT WED JUL 23 2014

ALZ001>004-231300-
NORTHWEST ALABAMA

CITY           SKY/WX    TMP DP  RH WIND       PRES   REMARKS
COURTLAND HCN    N/A     72 N/A N/A CALM        N/A
RUSSELLVILLE     N/A     70 N/A N/A MISG        N/A
SHOALS AIRPORT PTSUNNY   75  72  90 CALM      30.10R FOG
6HR MIN TEMP:  72; 6HR MAX TEMP:  75;

SHOALS TVA RES   N/A     72 N/A N/A MISG        N/A
$$

ALZ005>007-016-231300-
NORTH CENTRAL ALABAMA

CITY           SKY/WX    TMP DP  RH WIND       PRES   REMARKS
CULLMAN AG STN   N/A     70 N/A N/A CALM        N/A
DECATUR AP     SUNNY     74  73  97 CALM      30.10R FOG
6HR MIN TEMP:  72; 6HR MAX TEMP:  76;

HUNTSVILLE AP  MOSUNNY   76  72  87 E3        30.10R
6HR MIN TEMP:  74; 6HR MAX TEMP:  77; 6HR PCP: TRACE;

HUN NWS/UAH      N/A     76  70  83 N1          N/A
MERIDIANVILLE  CLOUDY    70  66  88 SE3       30.11S FOG
VINEMONT AP      N/A     72  71  96 CALM      30.13S
$$

ALZ008>010-231300-
NORTHEAST ALABAMA

CITY           SKY/WX    TMP DP  RH WIND       PRES   REMARKS
ALBERTVILLE    SUNNY     70  70 100 CALM      30.12R FOG
CROSSVILLE       N/A     72 N/A N/A CALM        N/A
FORT PAYNE     SUNNY     68  64  88 CALM      30.12R
SCOTTSBORO AP  FOG       72  72 100 NE5       30.12R VSB 1/4
SCOTTSBORO HCN   N/A     72 N/A N/A MISG        N/A
VALLEY HEAD      N/A     66 N/A N/A MISG        N/A
$$

TNZ076-096-097-231300-
SOUTHEASTERN MIDDLE TENNESSEE

CITY           SKY/WX    TMP DP  RH WIND       PRES   REMARKS
FAYETTEVILLE   MOSUNNY   72  70  94 CALM      30.12R
TULLAHOMA      SUNNY     72  70  94 SE5       30.13S
WINCHESTER     SUNNY     72  70  94 CALM      30.12S
$$

...SURROUNDING SITES...

CITY           SKY/WX    TMP DP  RH WIND       PRES   REMARKS
ATLANTA        PTSUNNY   74  69  85 CALM      30.12R
ANNISTON       SUNNY     72  69  90 NE3       30.10S
BIRMINGHAM     MOSUNNY   74  70  87 CALM      30.11R
CHATTANOOGA    MOSUNNY   73  69  87 CALM      30.12R FOG
CORINTH        CLOUDY    72  70  94 CALM      30.08R FOG
DALTON         CLOUDY    72  72 100 CALM      30.12S
GADSDEN        CLOUDY    73  70  88 CALM      30.10R
GOLDEN TRNGL   PTSUNNY   73  70  88 CALM      30.09R
HALEYVILLE     FAIR      72  72 100 CALM      30.13R
JACKSON TN     PTSUNNY   73  72  94 CALM      30.06S FOG
LEWISBURG      FAIR      72  70  93 CALM      30.09S
MEMPHIS        MOSUNNY   76  70  82 CALM      30.06S
NASHVILLE      MOSUNNY   74  73  97 S3        30.08R
OXFORD MS      FAIR      72  70  94 CALM      30.10R FOG
ROME           PTSUNNY   72  71  97 N3        30.11R
SAVANNAH       SUNNY     72  72 100 CALM      30.09R
TUPELO         MOSUNNY   74  72  93 CALM      30.08R
TUSCALOOSA     SUNNY     74  72  93 CALM      30.08R
$$

...GULF COAST WEATHER...

CITY           SKY/WX    TMP DP  RH WIND       PRES   REMARKS
GULFPORT       CLEAR     73  68  84 NE3       30.04R
PASCAGOULA     CLEAR     71  69  93 N3        30.06R
MOBILE         MOSUNNY   70  70 100 NE3       30.07R FOG
GULF SHORES    SUNNY     74  73  98 CALM      30.05S
PENSACOLA      PTSUNNY   73  72  96 CALM      30.05R
DESTIN         PTSUNNY   82  75  79 CALM      30.06R
PANAMA CITY    MOSUNNY   77  77 100 SE5       30.08R
APPALACHICOLA  SUNNY     77  73  87 NE3       30.06R
$$



USA.gov is the U.S. government's official web portal to all federal, state and local government web resources and services.